{"data":{"norad_id":81946,"epoch":"2026-09-09T13:24:09.312768Z","epoch_age_seconds":960057,"freshness":"AGED","line1":"1 81946U          26252.55844112  .00000388  00000+0  14134-2 0  9998","line2":"2 81946  66.4207 351.5308 0679901 221.3303 149.3405 12.42730267581538","mean_motion":12.42730267,"eccentricity":0.0679901,"inclination_deg":66.4207,"raan_deg":351.5308,"arg_perigee_deg":221.3303,"mean_anomaly_deg":149.3405,"bstar":0.0014134,"rev_number":58153,"period_min":115.87389783917,"perigee_km":959.7516352543,"apogee_km":2030.3492374896,"semimajor_km":7873.187436372,"source":"CELESTRAK","updated_at":"2026-09-20T09:00:32.428536Z"}}